KI7RM-1 Weather Reports


Display with metric or nautical units.
time (UTC)temp
F
wind
direction
speed
MPH
gust
MPH
rain 1hr
in
rain 24hr
in
rain mn
in
humidity
%
barometer
mb
20260505211851 63 186 0.0 3.0 0.00 0.00 0.00 71 1017.2
20260505211349 63 237 0.0 1.0 0.00 0.00 0.00 71 1017.3
20260505210349 63 331 0.0 4.0 0.00 0.00 0.00 72 1017.3
20260505205359 63 268 0.0 3.0 0.00 0.00 0.00 72 1017.3
20260505204859 63 215 3.0 3.0 0.00 0.00 0.00 72 1017.3
20260505204357 63 217 0.0 2.0 0.00 0.00 0.00 73 1017.4
20260505203853 62 217 0.0 2.0 0.00 0.00 0.00 73 1017.3
20260505203354 62 218 0.0 1.0 0.00 0.00 0.00 73 1017.4
20260505202859 62 218 0.0 5.0 0.00 0.00 0.00 73 1017.4
20260505201845 62 269 0.0 0.0 0.00 0.00 0.00 74 1017.5
20260505201404 61 269 0.0 0.0 0.00 0.00 0.00 74 1017.5
20260505200903 61 269 0.0 2.0 0.00 0.00 0.00 75 1017.5
20260505200357 61 267 2.0 2.0 0.00 0.00 0.00 74 1017.5
20260505194355 61 146 0.0 2.0 0.00 0.00 0.00 75 1017.6
20260505193855 61 146 1.0 1.0 0.00 0.00 0.00 74 1017.6
20260505193348 62 120 0.0 2.0 0.00 0.00 0.00 73 1017.6
20260505192849 62 120 0.0 2.0 0.00 0.00 0.00 74 1017.6
20260505192349 62 120 0.0 2.0 0.00 0.00 0.00 74 1017.6
20260505191850 62 120 0.0 2.0 0.00 0.00 0.00 74 1017.6
20260505191352 62 82 0.0 4.0 0.00 0.00 0.00 74 1017.7
20260505190850 61 82 0.0 4.0 0.00 0.00 0.00 74 1017.6
20260505190405 62 133 0.0 3.0 0.00 0.00 0.00 73 1017.6
20260505185902 62 133 0.0 3.0 0.00 0.00 0.00 75 1017.7
20260505185402 61 156 0.0 1.0 0.00 0.00 0.00 76 1017.7
20260505184902 61 156 1.0 1.0 0.00 0.00 0.00 75 1017.6
20260505184346 61 166 0.0 3.0 0.00 0.00 0.00 78 1017.6
20260505183853 60 167 0.0 3.0 0.00 0.00 0.00 79 1017.7
20260505183350 60 167 0.0 3.0 0.00 0.00 0.00 78 1017.8
20260505182844 59 167 0.0 3.0 0.00 0.00 0.00 79 1017.8
20260505182403 59 167 0.0 1.0 0.00 0.00 0.00 80 1017.7
20260505181902 58 167 0.0 1.0 0.00 0.00 0.00 81 1017.7
20260505181400 58 167 0.0 2.0 0.00 0.00 0.00 81 1017.6
20260505180351 58 167 1.0 1.0 0.00 0.00 0.00 81 1017.7
20260505175401 57 167 0.0 2.0 0.00 0.00 0.00 82 1017.6
20260505174900 57 167 0.0 2.0 0.00 0.00 0.00 82 1017.8
20260505174359 57 167 0.0 2.0 0.00 0.00 0.00 83 1017.8
20260505173845 57 167 0.0 1.0 0.00 0.00 0.00 83 1017.7
20260505173351 57 167 0.0 2.0 0.00 0.00 0.00 83 1017.6
20260505172853 57 167 0.0 2.0 0.00 0.00 0.00 83 1017.6
20260505172350 57 167 0.0 1.0 0.00 0.00 0.00 84 1017.6
20260505171846 57 167 0.0 1.0 0.00 0.00 0.00 84 1017.6
20260505171402 57 167 0.0 1.0 0.00 0.00 0.00 84 1017.5
20260505170844 56 167 0.0 2.0 0.00 0.00 0.00 84 1017.5
20260505170348 56 167 0.0 2.0 0.00 0.00 0.00 85 1017.5
20260505165856 56 167 2.0 2.0 0.00 0.00 0.00 84 1017.4
20260505165352 56 167 1.0 2.0 0.00 0.00 0.00 84 1017.4
20260505164848 56 167 0.0 2.0 0.00 0.00 0.00 84 1017.4
20260505164348 56 167 0.0 3.0 0.00 0.00 0.00 84 1017.3
20260505163904 56 165 0.0 3.0 0.00 0.00 0.00 84 1017.4
20260505163346 56 166 1.0 2.0 0.00 0.00 0.00 84 1017.4
20260505162850 56 166 1.0 1.0 0.00 0.00 0.00 85 1017.4
20260505161347 56 167 0.0 3.0 0.00 0.00 0.00 85 1017.1
20260505160844 56 166 3.0 3.0 0.00 0.00 0.00 85 1017.1
20260505160345 56 166 0.0 3.0 0.00 0.00 0.00 85 1017.2
20260505153350 56 171 3.0 5.0 0.00 0.00 0.00 84 1017.1
20260505152851 56 173 1.0 5.0 0.00 0.00 0.00 85 1017.1
20260505152348 56 167 0.0 3.0 0.00 0.00 0.00 85 1017.0
20260505151857 55 167 0.0 3.0 0.00 0.00 0.00 85 1017.1
20260505151343 55 168 1.0 4.0 0.00 0.00 0.00 85 1017.1
20260505140352 55 171 1.0 4.0 0.00 0.00 0.00 86 1016.5
20260505124844 55 162 1.0 3.0 0.00 0.00 0.00 85 1016.1
20260505124345 55 162 0.0 1.0 0.00 0.00 0.00 86 1016.1
20260505123849 55 162 0.0 0.0 0.00 0.00 0.00 86 1016.1
20260505123353 55 162 0.0 1.0 0.00 0.00 0.00 85 1016.1
20260505122855 55 162 0.0 2.0 0.00 0.00 0.00 85 1016.0
20260505122352 55 162 0.0 2.0 0.00 0.00 0.00 86 1016.0
20260505121849 55 162 0.0 2.0 0.00 0.00 0.00 86 1016.0
20260505121344 55 162 0.0 1.0 0.00 0.00 0.00 85 1016.0
20260505120843 55 162 0.0 1.0 0.00 0.00 0.00 86 1016.0
20260505120344 55 162 0.0 2.0 0.00 0.00 0.00 86 1015.9
20260505115846 55 162 0.0 3.0 0.00 0.00 0.00 86 1015.9
20260505115353 55 162 0.0 3.0 0.00 0.00 0.00 85 1015.8
20260505114852 55 162 0.0 3.0 0.00 0.00 0.00 85 1015.9
20260505114345 55 162 2.0 2.0 0.00 0.00 0.00 86 1016.0
20260505113846 55 162 0.0 1.0 0.00 0.00 0.00 86 1015.9
20260505113345 55 162 0.0 1.0 0.00 0.00 0.00 86 1015.9
20260505112850 55 162 0.0 2.0 0.00 0.00 0.00 86 1015.9
20260505112346 55 162 0.0 2.0 0.00 0.00 0.00 86 1015.9
20260505111356 55 162 0.0 0.0 0.00 0.00 0.00 86 1015.9
20260505110851 55 162 0.0 1.0 0.00 0.00 0.00 86 1015.8
20260505110352 55 162 0.0 1.0 0.00 0.00 0.00 87 1015.6
20260505101349 54 162 0.0 0.0 0.00 0.00 0.00 87 1015.3
20260505100846 54 162 0.0 1.0 0.00 0.00 0.00 87 1015.3
20260505100345 54 162 0.0 1.0 0.00 0.00 0.00 87 1015.3
20260505095844 54 162 0.0 0.0 0.00 0.00 0.00 86 1015.4
20260505095400 54 162 0.0 0.0 0.00 0.00 0.00 86 1015.4
20260505094901 54 162 0.0 0.0 0.00 0.00 0.00 86 1015.5
20260505094344 54 162 0.0 0.0 0.00 0.00 0.00 85 1015.3
20260505093359 54 162 0.0 0.0 0.00 0.00 0.00 86 1015.2
20260505092856 54 162 0.0 0.0 0.00 0.00 0.00 85 1015.2
20260505092352 55 162 0.0 0.0 0.00 0.00 0.00 85 1015.2
20260505091343 55 162 0.0 2.0 0.00 0.00 0.00 85 1015.1
20260505090850 55 162 0.0 2.0 0.00 0.00 0.00 84 1015.1
20260505090343 55 162 0.0 1.0 0.00 0.00 0.00 84 1015.0
20260505085343 55 162 0.0 1.0 0.00 0.00 0.00 83 1014.9
20260505084901 55 162 0.0 1.0 0.00 0.00 0.00 83 1014.9
20260505083850 56 162 0.0 2.0 0.00 0.00 0.00 83 1014.9
20260505083352 56 162 1.0 2.0 0.00 0.00 0.00 83 1014.9
20260505082851 56 162 0.0 2.0 0.00 0.00 0.00 83 1014.8
20260505081847 56 162 0.0 1.0 0.00 0.00 0.00 82 1014.7
20260505081351 57 162 0.0 1.0 0.00 0.00 0.00 82 1014.7
20260505080854 57 162 0.0 0.0 0.00 0.00 0.00 82 1014.7
20260505075841 57 162 0.0 2.0 0.00 0.00 0.00 81 1014.7
20260505075359 57 162 0.0 2.0 0.00 0.00 0.00 81 1014.6
20260505074852 57 162 0.0 1.0 0.00 0.00 0.00 81 1014.6
20260505074352 57 162 0.0 1.0 0.00 0.00 0.00 80 1014.5
20260505073438 57 162 0.0 3.0 0.00 0.00 0.00 80 1014.4
20260505072353 58 162 1.0 4.0 0.00 0.00 0.00 80 1014.3
20260505071840 58 163 1.0 3.0 0.00 0.00 0.00 80 1014.1
20260505070359 59 162 0.0 1.0 0.00 0.00 0.00 79 1014.0
20260505065902 59 162 0.0 1.0 0.00 0.00 0.00 78 1014.0
20260505065340 59 162 0.0 2.0 0.00 0.00 0.00 78 1013.9
20260505064848 59 162 0.0 2.0 0.00 0.00 0.00 78 1013.8
20260505064354 59 162 0.0 2.0 0.00 0.00 0.00 78 1013.7
20260505063347 60 162 0.0 3.0 0.00 0.00 0.00 77 1013.6
20260505062844 60 162 2.0 2.0 0.00 0.00 0.00 76 1013.6
20260505062345 60 162 2.0 3.0 0.00 0.00 0.00 76 1013.5
20260505061353 60 162 2.0 3.0 0.00 0.00 0.00 75 1013.4
20260505060855 61 178 2.0 4.0 0.00 0.00 0.00 75 1013.3
20260505060349 61 178 0.0 4.0 0.00 0.00 0.00 75 1013.4
20260505055850 61 178 0.0 4.0 0.00 0.00 0.00 74 1013.3
20260505055348 61 179 3.0 4.0 0.00 0.00 0.00 74 1013.3
20260505054847 62 184 2.0 5.0 0.00 0.00 0.00 73 1013.4
20260505053900 63 177 2.0 4.0 0.00 0.00 0.00 72 1013.1
20260505052859 64 158 2.0 2.0 0.00 0.00 0.00 71 1013.2
20260505052357 64 182 2.0 2.0 0.00 0.00 0.00 71 1013.1
20260505051852 64 181 1.0 5.0 0.00 0.00 0.00 70 1013.0
20260505051355 65 177 1.0 5.0 0.00 0.00 0.00 69 1013.0
20260505050840 66 228 0.0 3.0 0.00 0.00 0.00 68 1012.9
20260505050344 66 221 0.0 5.0 0.00 0.00 0.00 68 1012.9
20260505041346 67 222 1.0 3.0 0.00 0.00 0.00 67 1012.1
20260505040849 67 179 0.0 5.0 0.00 0.00 0.00 67 1012.0
20260505035858 68 190 2.0 6.0 0.00 0.00 0.00 67 1011.9
20260505035343 68 175 4.0 9.0 0.00 0.00 0.00 67 1011.7
20260505034900 68 158 4.0 9.0 0.00 0.00 0.00 67 1011.7
20260505034353 68 169 4.0 10.0 0.00 0.00 0.00 67 1011.6
20260505033851 69 186 10.0 10.0 0.00 0.00 0.00 67 1011.5
20260505033354 69 169 4.0 7.0 0.00 0.00 0.00 68 1011.4
20260505032856 69 169 3.0 10.0 0.00 0.00 0.00 67 1011.4
20260505032356 69 163 4.0 10.0 0.00 0.00 0.00 67 1011.4
20260505031857 70 204 7.0 7.0 0.00 0.00 0.00 67 1011.3
20260505030851 71 181 6.0 6.0 0.00 0.00 0.00 67 1011.2
20260505030350 71 160 2.0 5.0 0.00 0.00 0.00 67 1011.1
20260505025853 71 176 3.0 5.0 0.00 0.00 0.00 66 1011.0
20260505025354 71 168 1.0 4.0 0.00 0.00 0.00 66 1011.0
20260505024841 71 162 2.0 5.0 0.00 0.00 0.00 66 1011.0
20260505024349 71 167 3.0 5.0 0.00 0.00 0.00 65 1010.9
20260505023843 72 167 3.0 5.0 0.00 0.00 0.00 66 1011.0
20260505023347 72 161 4.0 6.0 0.00 0.00 0.00 65 1010.9
20260505022849 72 168 6.0 8.0 0.00 0.00 0.00 65 1010.9
20260505022346 72 154 4.0 8.0 0.00 0.00 0.00 65 1010.9
20260505021845 72 191 2.0 6.0 0.00 0.00 0.00 64 1010.9
20260505021344 72 164 3.0 6.0 0.00 0.00 0.00 64 1011.0
20260505020858 72 169 4.0 9.0 0.00 0.00 0.00 64 1010.9
20260505020356 72 205 5.0 9.0 0.00 0.00 0.00 64 1010.9
20260505015858 72 171 3.0 9.0 0.00 0.00 0.00 64 1011.0
20260505015342 72 167 9.0 9.0 0.00 0.00 0.00 64 1010.9
20260505014846 73 162 3.0 8.0 0.00 0.00 0.00 63 1010.9
20260505013843 73 162 5.0 7.0 0.00 0.00 0.00 63 1011.0
20260505013356 73 167 6.0 7.0 0.00 0.00 0.00 64 1011.0
20260505012856 73 184 3.0 7.0 0.00 0.00 0.00 64 1011.1
20260505012355 73 203 5.0 8.0 0.00 0.00 0.00 63 1011.0
20260505011856 72 209 6.0 9.0 0.00 0.00 0.00 64 1011.1
20260505011343 72 205 4.0 9.0 0.00 0.00 0.00 63 1011.2
20260505005343 73 175 5.0 9.0 0.00 0.00 0.00 63 1011.3
20260505004844 73 148 2.0 9.0 0.00 0.00 0.00 63 1011.3
20260505004350 72 185 6.0 9.0 0.00 0.00 0.00 63 1011.3
20260505003855 73 207 7.0 9.0 0.00 0.00 0.00 63 1011.3
20260505003349 73 177 2.0 9.0 0.00 0.00 0.00 62 1011.3
20260505002848 73 121 3.0 9.0 0.00 0.00 0.00 62 1011.5
20260505002346 73 179 9.0 10.0 0.00 0.00 0.00 63 1011.4
20260505001843 72 201 2.0 10.0 0.00 0.00 0.00 63 1011.4
20260505000858 72 172 8.0 9.0 0.00 0.00 0.00 63 1011.4
20260505000358 72 176 3.0 9.0 0.00 0.00 0.00 63 1011.5
20260504235854 73 195 9.0 9.0 0.00 0.00 0.00 62 1011.6
20260504235354 72 167 4.0 10.0 0.00 0.00 0.00 63 1011.4
20260504234353 72 170 7.0 8.0 0.00 0.00 0.00 62 1011.6
20260504233856 72 156 3.0 8.0 0.00 0.00 0.00 61 1011.6
20260504233341 72 172 3.0 9.0 0.00 0.00 0.00 63 1011.7
20260504232855 72 158 4.0 9.0 0.00 0.00 0.00 64 1011.8
20260504232351 72 213 6.0 9.0 0.00 0.00 0.00 63 1011.8
20260504231851 72 186 5.0 8.0 0.00 0.00 0.00 62 1011.7
20260504231349 72 181 8.0 8.0 0.00 0.00 0.00 61 1011.7
20260504230853 72 157 1.0 9.0 0.00 0.00 0.00 61 1011.8
20260504230356 72 177 5.0 9.0 0.00 0.00 0.00 62 1011.9
20260504225858 72 167 9.0 10.0 0.00 0.00 0.00 61 1011.9
20260504225354 72 131 3.0 10.0 0.00 0.00 0.00 62 1012.1
20260504224852 72 224 3.0 10.0 0.00 0.00 0.00 61 1012.1
20260504224347 71 176 4.0 10.0 0.00 0.00 0.00 62 1012.1
20260504223851 71 160 2.0 7.0 0.00 0.00 0.00 62 1012.2
20260504223338 71 182 4.0 7.0 0.00 0.00 0.00 62 1012.3
20260504222845 71 202 3.0 6.0 0.00 0.00 0.00 62 1012.3
20260504222343 71 196 2.0 5.0 0.00 0.00 0.00 62 1012.3
20260504221342 70 147 3.0 8.0 0.00 0.00 0.00 62 1012.5
20260504220856 70 167 5.0 8.0 0.00 0.00 0.00 64 1012.6
20260504220356 70 178 3.0 7.0 0.00 0.00 0.00 63 1012.6
20260504215843 70 286 4.0 7.0 0.00 0.00 0.00 63 1012.8
20260504215344 69 171 4.0 11.0 0.00 0.00 0.00 65 1012.7
20260504214846 69 204 3.0 11.0 0.00 0.00 0.00 64 1012.8
20260504214346 69 192 6.0 7.0 0.00 0.00 0.00 66 1012.8
20260504213900 69 159 2.0 8.0 0.00 0.00 0.00 64 1012.9
20260504213357 69 183 3.0 8.0 0.00 0.00 0.00 66 1013.0
20260504212842 69 174 1.0 8.0 0.00 0.00 0.00 66 1013.0
20260504212359 68 128 1.0 8.0 0.00 0.00 0.00 67 1013.1